Temperature
14 15 15 16 16 17 19 21 23 23 23 23 23 23 22 20 20 17 16 16 16 16 16 17 17 17 16 16 16 16 16 16 16 16 16 16 16 16 16 16 16 16 16 16 16 16 16 16 16
14 14 15 16 16 17 19 21 22 22 22 22 22 22 21 19 17 16 16 16 15 16 16 16 16 16 16 16 16 16 16 16 16 16 16 16 16 16 16 16 16 16 16 16 16 16 16 16 16
13 14 15 16 17 18 20 21 21 21 21 21 21 20 20 18 17 16 15 15 15 15 16 16 16 16 16 16 16 16 16 16 16 16 16 16 16 16 16 16 16 16 16 16 16 16 16 16 16
13 14 16 16 18 19 21 21 21 21 21 21 20 19 17 17 16 15 15 15 15 15 15 16 16 16 16 16 16 16 16 16 16 16 16 16 16 16 16 16 16 16 16 16 16 16 16 16 16
13 15 15 16 18 19 21 21 21 20 20 20 20 18 16 15 15 15 15 15 15 15 15 15 15 15 16 16 16 16 16 16 16 16 16 16 16 16 16 16 15 15 15 15 16 16 16 16 16
14 15 15 16 18 19 20 20 21 20 20 20 19 18 15 15 15 14 14 14 14 14 15 15 15 15 15 15 15 15 15 15 15 15 15 15 15 15 15 15 15 15 15 15 15 15 16 16 15
14 15 16 18 18 19 19 20 20 20 19 19 19 17 15 14 14 14 14 14 14 14 14 14 15 15 15 15 15 15 15 15 15 15 15 15 15 15 15 15 15 15 15 15 15 15 15 15 15
13 14 16 17 18 18 19 19 19 19 18 18 18 17 15 14 14 14 14 14 14 14 14 14 14 14 14 14 14 14 15 15 15 15 15 15 15 15 15 15 15 15 15 15 15 15 15 15 15
13 13 15 17 17 17 17 18 17 17 17 16 16 15 14 14 14 13 13 13 13 13 13 14 14 14 14 14 14 14 14 14 14 14 14 14 14 14 15 15 15 15 15 15 15 15 15 15 15
13 13 14 15 17 16 16 17 16 16 16 15 14 14 14 13 13 13 13 13 13 13 13 13 13 13 14 14 14 14 14 14 14 14 14 14 14 14 14 14 14 14 14 14 14 15 15 15 15
14 13 14 15 15 16 16 16 16 16 15 15 14 13 13 13 13 13 13 13 13 13 13 13 13 13 13 13 13 13 13 13 13 13 13 13 13 13 13 13 13 14 14 14 14 14 14 14 14
13 14 14 14 14 15 15 15 15 15 15 14 14 13 13 12 12 12 12 12 12 12 12 13 13 13 13 13 13 12 12 12 12 12 13 13 13 13 13 13 13 13 13 13 13 13 13 13 14
13 13 13 13 13 14 14 14 14 14 14 14 13 13 13 12 12 12 12 12 12 12 12 12 12 12 12 12 12 12 12 12 12 12 12 12 12 12 12 12 12 12 12 12 13 13 13 13 13
13 13 13 13 13 13 13 13 13 13 13 13 13 12 12 12 12 11 11 11 11 12 12 12 12 12 12 12 11 11 11 11 11 11 11 11 11 11 12 12 12 12 12 12 12 12 12 12 13
13 12 12 13 13 13 12 12 12 13 13 13 12 12 12 12 11 11 11 11 11 11 11 11 11 11 11 11 11 11 11 11 11 11 11 11 11 11 11 11 11 11 11 11 11 12 12 12 12
13 12 11 13 13 13 12 11 13 13 13 13 13 12 12 11 11 11 11 11 11 11 11 11 11 11 11 11 11 11 11 10 10 10 10 11 10 10 10 11 11 11 11 11 11 11 11 11 11
12 11 12 12 13 13 12 11 13 13 13 13 13 12 12 11 11 11 10 10 10 10 10 11 11 11 11 11 10 10 10 10 10 10 10 10 10 10 10 10 10 10 10 10 10 10 10 11 11
11 12 13 12 12 12 12 12 13 13 13 13 13 13 12 12 11 11 10 10 10 10 10 10 10 10 10 10 10 10 10 10 10 10 10 10 10 9 9 9 9 9 9 10 10 10 10 10 10
12 12 12 12 12 12 11 12 12 13 13 13 13 13 12 11 11 11 10 10 10 10 10 10 10 10 10 10 10 10 10 9 9 9 9 9 9 9 9 9 9 9 9 9 9 9 9 9 9
12 11 12 12 12 12 11 11 12 12 12 13 13 13 12 11 11 10 10 10 9 9 9 9 9 9 9 9 9 9 9 9 9 8 9 9 9 9 9 8 9 8 8 8 9 9 9 9 9
11 11 11 11 11 12 11 11 12 12 13 13 12 12 12 11 11 10 10 9 9 9 9 9 9 9 9 9 9 9 9 8 8 8 8 8 8 8 8 8 8 8 8 8 8 8 8 8 8
10 11 11 11 10 10 11 9 11 12 12 12 12 11 11 11 10 10 9 9 9 9 9 9 9 9 9 9 8 8 8 8 8 8 7 8 7 7 7 7 7 8 8 8 7 7 7 7 7
10 11 11 10 10 9 10 9 10 12 11 11 11 11 11 10 10 9 9 9 9 8 8 8 8 8 8 8 8 8 8 7 7 7 7 7 7 7 7 7 7 7 7 7 7 7 7 7 7
10 10 10 10 9 8 10 10 10 11 11 12 11 11 10 10 9 9 9 8 8 8 8 8 8 8 8 8 8 7 7 7 7 7 7 6 6 6 6 6 6 6 6 6 6 6 6 6 6
10 8 8 8 8 9 11 10 10 12 12 12 11 11 10 10 9 9 8 8 8 8 8 8 8 8 7 7 7 7 7 7 6 6 6 6 6 6 6 6 6 6 6 6 6 6 6 6 6
9 9 8 8 9 10 10 9 10 12 12 12 11 11 10 9 9 8 8 8 8 7 7 7 7 7 7 7 7 7 7 6 6 6 6 6 6 6 5 5 5 6 6 6 6 6 6 5 5
9 9 9 8 8 8 9 11 12 11 11 11 11 10 10 9 9 8 8 8 7 7 7 7 7 7 7 7 7 7 6 6 6 6 6 5 5 5 5 5 5 5 5 5 5 5 5 5 5
8 9 8 8 8 8 10 11 10 10 10 10 10 10 9 9 8 8 8 7 7 7 7 7 7 7 7 6 6 6 6 6 6 5 5 5 5 5 5 5 5 5 5 5 5 5 5 4 4
8 8 8 8 8 8 8 9 11 10 10 10 10 10 9 9 8 8 7 7 7 7 7 7 7 6 6 6 6 6 5 5 5 5 5 5 5 5 5 5 4 4 4 4 4 4 4 4 4
8 9 8 7 7 8 7 8 11 10 10 10 10 10 9 9 8 8 7 7 7 7 6 6 6 6 6 6 5 5 5 5 5 5 4 4 4 4 4 4 4 4 4 3 3 3 3 3 3
Wind_Speed
11 11 7 3 4 6 10 6 5 2 2 1 4 4 5 6 5 9 5 8 9 10 13 12 10 9 9 9 8 8 7 7 6 6 5 4 4 3 3 3 2 2 2 3 3 4 3 4 4
11 7 5 4 5 8 8 8 5 2 3 4 5 4 6 7 8 8 6 7 8 10 12 11 10 9 9 8 7 7 6 5 5 5 4 4 3 3 2 2 1 1 2 3 3 3 3 3 4
10 8 4 4 7 9 5 6 5 3 6 4 3 5 4 5 6 5 6 6 7 10 12 11 10 9 8 7 6 6 5 4 4 3 3 2 2 2 2 1 1 1 1 2 2 2 3 3 4
4 4 4 6 11 8 5 3 5 6 4 3 5 6 4 6 4 6 6 6 8 9 11 11 10 8 7 6 5 4 3 3 2 2 2 1 1 1 1 1 1 0 1 2 3 3 3 4 4
4 4 6 8 10 8 3 1 3 5 5 4 4 5 5 5 8 7 5 6 7 8 10 10 9 7 6 5 4 3 2 2 1 0 0 0 1 1 1 1 1 1 1 2 3 4 5 5 5
4 4 6 9 9 8 4 1 2 4 5 5 4 4 5 6 6 5 5 5 7 8 8 9 8 7 6 5 4 3 2 1 1 1 1 1 2 2 2 2 3 3 3 3 3 4 5 6 7
4 5 8 8 8 8 5 2 3 3 5 4 2 3 6 6 5 4 5 5 6 7 6 6 6 6 5 4 3 3 2 1 1 2 2 2 3 4 4 4 4 4 5 4 5 5 6 7 8
3 4 6 7 8 5 4 2 1 2 4 4 3 3 5 6 5 4 5 5 6 6 5 5 5 5 4 3 2 2 1 1 2 2 3 3 4 5 5 6 5 5 6 6 6 6 7 8 9
3 4 5 5 4 3 5 3 2 4 5 3 5 5 7 8 6 5 4 4 5 5 4 4 4 4 3 2 1 1 1 1 2 2 3 4 4 5 5 6 6 7 7 8 8 8 8 9 10
3 4 3 4 4 3 4 3 2 3 5 3 5 7 8 6 5 5 3 3 4 3 3 4 3 3 3 3 2 2 2 2 2 3 3 3 4 4 4 4 7 8 9 9 10 10 10 9 9
1 2 1 5 7 4 3 2 1 3 3 3 5 7 7 5 4 4 3 3 4 4 4 4 3 4 4 3 2 2 2 2 3 3 4 5 4 3 3 3 3 6 7 7 8 9 8 8 8
2 1 1 2 4 3 2 1 1 1 2 5 5 6 6 5 4 3 3 3 3 4 4 4 3 3 4 4 3 3 2 2 3 4 4 4 3 2 2 2 3 3 4 4 4 5 7 8 8
2 1 1 2 1 2 2 1 1 0 2 4 5 5 6 5 4 3 3 3 3 4 4 3 3 3 3 3 2 3 3 2 3 4 4 4 3 2 2 2 3 3 4 3 3 4 4 5 5
3 2 2 2 2 1 1 0 1 3 4 4 5 5 5 5 4 3 3 3 3 3 3 3 3 3 3 2 2 2 3 3 4 4 5 5 4 3 3 3 3 4 4 4 4 3 4 4 4
3 3 3 3 3 2 1 2 5 5 5 5 5 5 5 5 4 3 3 3 3 3 3 2 2 3 3 3 3 3 4 4 3 4 6 6 5 5 4 3 3 4 6 6 4 4 3 4 4
5 3 3 3 4 3 2 4 4 5 5 5 6 6 6 5 4 3 3 3 3 3 2 2 2 3 3 2 2 2 3 3 3 4 6 7 7 7 5 3 3 4 5 4 3 3 3 4 4
4 4 4 3 4 4 4 4 3 4 6 6 6 6 6 5 5 4 4 4 4 3 2 2 2 2 3 2 2 2 3 3 3 4 5 7 8 8 6 3 4 5 4 3 3 3 3 4 4
2 3 2 3 4 3 4 5 4 4 6 6 6 6 5 5 4 5 5 4 4 3 2 2 2 2 2 2 2 2 2 3 3 4 5 7 7 8 7 4 5 5 3 3 3 4 4 3 4
3 1 1 1 3 2 4 6 6 5 6 6 5 5 5 4 5 6 6 5 4 3 1 1 2 2 2 2 2 2 2 3 3 3 5 7 8 8 6 5 5 4 3 3 4 3 4 3 3
2 2 1 2 2 2 4 7 6 6 6 6 5 5 5 4 4 5 6 5 4 2 1 1 2 2 2 2 1 1 2 2 2 2 4 6 7 7 6 5 4 4 3 4 4 3 3 3 2
1 2 2 2 2 4 3 5 6 5 5 4 3 3 4 4 4 5 5 5 4 3 2 1 2 2 2 2 1 2 2 2 2 3 3 4 5 6 6 6 5 4 4 3 3 3 3 3 3
1 3 2 2 2 2 2 3 4 5 6 6 5 4 4 3 3 4 5 5 4 3 2 1 1 1 1 1 1 1 1 2 2 2 2 3 5 5 6 6 5 4 4 4 4 4 3 3 3
1 3 3 4 3 3 4 3 5 5 5 6 6 5 4 3 4 4 4 4 4 4 3 1 0 0 1 1 1 1 1 1 2 2 2 3 3 4 5 5 5 4 4 4 4 4 4 3 3
2 3 3 2 1 3 5 4 4 3 5 5 6 6 5 4 3 4 3 4 4 4 3 2 1 1 0 0 1 1 1 2 2 3 3 3 2 3 4 5 4 4 3 4 4 4 4 4 4
2 1 1 1 1 4 3 3 5 2 4 4 5 5 5 5 4 4 4 3 3 3 3 2 2 1 1 0 0 1 1 1 2 2 2 3 3 3 4 4 4 4 4 4 4 3 4 4 4
2 1 1 1 2 2 1 5 3 5 6 5 4 4 4 4 4 4 4 4 3 3 3 3 3 2 1 1 1 1 1 1 1 2 2 2 2 3 3 4 4 4 5 5 4 3 4 4 4
2 0 1 1 3 3 5 4 2 5 5 4 3 3 2 3 3 3 3 3 3 3 3 3 3 2 2 2 1 1 1 1 1 2 2 2 2 3 3 4 4 4 5 4 4 3 3 3 3
3 3 1 1 2 4 4 4 2 4 3 3 3 3 2 2 2 3 3 3 3 3 3 4 4 3 2 2 2 1 1 1 2 1 2 2 3 3 4 4 4 4 4 4 4 4 4 4 4
2 2 2 2 3 2 4 3 2 4 4 3 2 2 2 3 3 2 3 3 3 3 4 4 4 4 3 3 2 2 2 2 2 2 2 2 3 3 3 4 4 4 4 4 4 4 5 5 5
2 3 3 2 3 3 3 5 2 5 4 3 2 0 1 2 2 3 3 3 3 4 4 4 4 3 3 3 3 3 2 2 2 2 2 2 3 3 3 4 4 4 4 4 4 5 5 5 5
Wind_Direction
282 265 248 235 221 226 231 225 221 212 224 19 29 39 58 35 53 115 122 88 98 106 108 107 102 100 97 95 94 92 92 90 89 89 91 91 90 90 92 112 124 126 125 124 128 129 128 124 120
276 257 239 228 223 221 219 211 217 198 107 68 39 44 66 73 74 99 97 90 99 102 106 105 103 101 98 96 93 92 93 94 90 87 83 80 79 79 87 84 111 160 152 142 137 139 143 145 143
267 250 232 222 226 227 210 186 169 131 89 94 76 32 47 73 89 91 103 109 100 98 102 104 104 101 100 96 93 89 87 89 88 85 83 75 70 59 56 59 66 103 161 171 169 168 166 163 165
250 226 239 234 229 234 236 148 141 139 114 105 113 91 68 33 59 97 113 110 102 101 100 104 105 101 100 99 93 88 83 80 85 81 78 74 58 22 10 11 26 82 192 194 202 198 192 190 189
243 234 222 225 228 228 234 90 141 136 143 142 121 108 93 66 75 98 100 97 101 99 98 106 105 105 102 98 98 92 84 75 76 76 315 298 267 282 295 300 291 270 241 226 222 221 214 210 212
235 236 224 218 216 212 197 197 187 143 138 139 128 118 111 104 87 86 93 92 95 100 103 108 106 107 106 100 101 92 71 53 11 296 273 266 265 264 261 261 253 250 253 247 239 235 232 224 220
250 241 239 226 214 204 181 172 194 149 143 138 112 119 123 119 97 88 86 88 86 88 93 99 104 101 99 98 103 101 91 52 315 292 272 263 265 258 255 251 247 246 246 249 249 245 239 234 229
284 284 253 236 224 204 146 131 55 90 106 56 27 122 132 132 118 101 89 82 80 81 82 78 79 80 77 80 109 106 134 225 259 266 261 259 258 257 251 246 245 244 246 248 251 253 246 242 236
273 264 244 247 233 151 126 124 43 52 82 71 47 61 101 125 122 111 105 95 86 78 74 70 60 60 51 33 48 43 246 241 258 267 255 254 259 256 252 240 242 248 249 248 249 251 250 246 241
231 249 254 327 342 115 129 130 124 141 131 123 100 91 103 121 126 131 121 106 91 76 70 65 47 38 31 23 11 352 342 346 321 323 313 282 273 272 272 260 249 247 246 246 248 248 248 247 242
228 248 273 6 16 58 107 113 125 188 169 161 146 136 132 134 135 133 116 91 84 69 54 56 39 24 21 16 10 357 344 337 320 334 328 313 303 301 301 289 269 256 247 246 250 245 246 243 240
219 287 19 31 4 29 83 115 178 240 80 83 103 128 136 146 145 131 112 84 73 67 52 50 40 34 23 14 1 355 4 355 342 336 324 330 334 330 321 312 287 275 266 260 257 254 250 250 248
211 149 112 79 46 31 51 50 354 61 97 94 111 130 147 149 129 123 111 93 77 65 49 40 35 38 25 16 352 7 5 354 332 331 330 341 340 320 330 318 314 296 288 280 274 273 272 267 261
144 147 139 133 135 111 109 234 243 204 153 142 149 159 160 149 144 142 119 97 82 68 50 33 32 41 25 19 10 6 1 346 333 341 340 343 335 331 328 316 314 311 308 293 277 280 281 278 278
161 164 161 173 168 136 104 249 215 200 172 174 174 171 160 149 148 140 124 114 93 73 48 26 21 42 30 17 6 355 346 348 352 346 338 343 336 331 326 307 307 317 312 312 313 303 303 291 285
188 187 181 174 173 170 181 246 192 171 182 190 182 177 167 154 149 142 125 115 100 86 58 27 22 28 24 19 0 340 341 350 352 348 351 349 342 339 332 317 306 317 322 325 311 302 305 297 293
197 211 187 160 182 173 197 241 183 171 191 199 192 182 167 160 156 142 125 110 95 88 70 34 36 37 26 12 350 336 339 351 351 357 2 351 347 345 341 331 326 328 322 307 303 308 299 293 294
217 221 193 167 172 192 216 240 226 192 202 202 198 184 172 168 163 142 130 116 104 93 79 52 34 37 28 14 5 356 357 356 2 4 359 353 349 348 344 335 332 332 317 312 309 299 297 295 296
304 284 243 108 119 225 231 247 247 213 206 208 203 187 174 173 156 139 137 127 116 106 97 75 42 23 34 28 15 3 356 346 347 357 359 357 350 348 344 333 327 325 315 311 309 305 306 306 311
312 303 341 67 99 257 254 264 257 222 208 202 202 183 170 169 160 153 145 134 129 126 105 72 58 28 28 32 1 326 328 324 325 352 0 354 349 347 340 335 327 324 317 320 317 316 309 308 316
356 343 18 5 317 241 251 273 236 202 192 177 183 172 165 170 171 156 146 137 132 127 112 59 47 21 18 24 6 356 350 332 355 355 350 346 345 345 339 335 333 325 323 311 312 307 298 295 293
358 1 345 299 308 269 233 280 252 195 187 191 188 182 183 170 156 149 148 139 137 133 115 79 47 21 2 7 358 336 333 328 324 332 332 343 351 346 341 337 335 329 324 319 313 317 302 289 286
10 324 293 278 285 300 243 236 257 189 198 195 181 175 168 156 155 154 149 146 143 134 130 137 171 298 347 360 344 324 327 315 316 327 332 339 341 342 341 341 340 332 327 324 321 319 313 299 282
300 290 268 256 296 274 230 210 262 202 195 179 166 158 149 146 147 145 142 141 143 139 140 163 198 231 263 326 331 321 308 314 322 325 325 327 330 335 340 338 336 331 326 320 312 312 315 307 296
300 348 7 343 241 247 188 209 250 198 127 135 141 149 154 159 160 156 156 154 155 156 167 189 197 221 227 236 290 301 295 297 293 305 310 318 320 323 329 334 330 327 321 316 312 305 303 301 295
294 321 13 264 269 297 207 232 240 110 97 93 103 124 141 157 159 164 170 168 175 184 186 192 202 215 209 213 243 266 271 259 267 291 301 307 308 310 315 321 323 322 319 316 312 300 291 292 288
312 299 4 310 288 268 245 225 155 114 109 119 132 140 158 162 160 167 170 174 185 192 194 197 203 209 207 207 216 246 267 269 276 286 293 292 295 305 316 317 317 315 316 314 308 296 296 295 290
296 327 321 261 290 282 268 242 207 162 170 171 164 157 161 143 149 170 180 193 199 195 200 198 197 201 205 198 213 244 258 263 270 284 290 294 297 302 302 304 306 306 307 309 311 305 298 294 289
191 235 241 270 274 275 293 288 38 134 140 151 151 143 166 169 180 190 198 199 204 203 202 203 200 196 196 201 209 223 243 251 258 265 274 285 292 296 297 302 305 304 303 306 311 307 303 295 292
266 242 205 215 265 244 267 271 64 101 99 104 103 139 200 199 191 198 214 209 211 216 212 207 199 199 201 199 204 217 226 232 249 263 275 285 292 299 299 304 308 307 307 310 310 309 310 300 295
Height
1498 1500 1504 1507 1510 1509 1502 1492 1485 1486 1487 1489 1490 1492 1496 1502 1505 1518 1520 1518 1519 1520 1521 1522 1524 1525 1527 1529 1530 1531 1532 1533 1534 1535 1535 1536 1537 1537 1538 1539 1539 1540 1540 1541 1541 1541 1542 1542 1543
1497 1501 1505 1506 1506 1506 1497 1489 1487 1487 1489 1491 1492 1494 1498 1505 1509 1514 1516 1518 1519 1519 1520 1522 1524 1525 1527 1528 1530 1531 1532 1533 1534 1534 1535 1536 1536 1537 1538 1538 1539 1539 1540 1540 1541 1541 1542 1542 1543
1497 1501 1504 1501 1499 1496 1491 1484 1486 1488 1490 1492 1496 1498 1503 1508 1511 1514 1516 1517 1519 1519 1520 1522 1523 1525 1526 1528 1529 1530 1531 1532 1533 1534 1534 1535 1536 1536 1537 1538 1538 1539 1539 1540 1540 1541 1541 1542 1542
1498 1501 1501 1499 1494 1487 1484 1482 1484 1488 1491 1494 1497 1503 1507 1511 1512 1513 1516 1517 1518 1519 1520 1521 1523 1524 1526 1527 1528 1529 1530 1531 1532 1533 1534 1534 1535 1535 1536 1537 1537 1538 1538 1539 1540 1540 1541 1541 1542
1498 1499 1498 1495 1490 1485 1483 1483 1484 1488 1491 1495 1498 1503 1509 1512 1512 1514 1515 1517 1518 1519 1520 1521 1522 1524 1525 1526 1527 1528 1529 1530 1531 1532 1532 1533 1534 1534 1535 1535 1536 1537 1537 1538 1538 1539 1540 1540 1541
1498 1495 1496 1493 1487 1484 1484 1485 1486 1488 1492 1496 1499 1504 1510 1512 1513 1514 1516 1517 1518 1519 1519 1521 1522 1523 1524 1525 1526 1527 1528 1529 1529 1530 1531 1531 1532 1533 1533 1534 1534 1535 1536 1536 1537 1537 1538 1539 1539
1497 1493 1490 1485 1486 1484 1484 1486 1488 1490 1493 1497 1500 1504 1509 1511 1513 1514 1515 1517 1518 1518 1519 1520 1521 1522 1523 1524 1525 1526 1526 1527 1528 1529 1529 1530 1530 1531 1531 1532 1532 1533 1534 1534 1535 1536 1536 1537 1537
1494 1493 1487 1484 1485 1484 1485 1487 1489 1492 1495 1498 1500 1504 1508 1510 1512 1513 1515 1516 1517 1518 1519 1519 1520 1521 1522 1523 1524 1524 1525 1525 1526 1527 1527 1528 1528 1529 1529 1530 1530 1531 1531 1532 1533 1533 1534 1534 1535
1494 1495 1490 1485 1484 1486 1486 1489 1492 1494 1496 1499 1502 1503 1506 1509 1511 1513 1514 1516 1516 1517 1518 1519 1519 1520 1521 1521 1522 1523 1523 1524 1524 1524 1525 1526 1526 1526 1527 1527 1528 1528 1529 1529 1530 1531 1531 1532 1532
1493 1494 1490 1488 1484 1485 1488 1490 1493 1496 1498 1501 1503 1505 1507 1509 1511 1512 1514 1515 1516 1517 1517 1517 1518 1519 1519 1520 1520 1521 1521 1522 1522 1522 1523 1523 1524 1524 1524 1525 1525 1526 1526 1526 1527 1527 1528 1528 1529
1492 1492 1490 1489 1488 1488 1490 1493 1495 1496 1499 1501 1503 1505 1507 1509 1510 1511 1513 1514 1515 1515 1516 1516 1517 1517 1517 1518 1518 1519 1519 1520 1520 1520 1521 1521 1521 1521 1522 1522 1522 1523 1523 1524 1524 1524 1525 1525 1525
1492 1491 1491 1492 1491 1492 1493 1495 1496 1497 1500 1501 1503 1504 1506 1508 1509 1511 1512 1513 1514 1514 1515 1515 1515 1515 1516 1516 1516 1516 1517 1517 1518 1518 1519 1519 1519 1519 1519 1519 1520 1520 1520 1520 1521 1521 1521 1522 1522
1492 1492 1493 1493 1494 1494 1495 1497 1498 1498 1500 1501 1502 1504 1506 1507 1508 1510 1511 1512 1512 1513 1513 1513 1514 1514 1514 1514 1514 1514 1515 1515 1516 1516 1516 1516 1516 1516 1517 1517 1517 1517 1517 1517 1517 1518 1518 1518 1519
1492 1493 1494 1494 1495 1496 1497 1498 1499 1499 1500 1501 1502 1503 1505 1506 1508 1509 1510 1511 1511 1511 1512 1512 1512 1512 1512 1512 1512 1512 1512 1513 1513 1514 1514 1514 1514 1514 1514 1514 1514 1514 1514 1514 1514 1514 1514 1515 1515
1493 1495 1495 1495 1495 1497 1499 1500 1499 1498 1499 1500 1502 1503 1504 1505 1507 1508 1509 1509 1510 1510 1510 1510 1511 1511 1510 1510 1510 1510 1510 1511 1511 1511 1512 1512 1511 1511 1511 1511 1511 1511 1511 1511 1511 1511 1511 1511 1511
1493 1495 1498 1495 1495 1497 1501 1502 1496 1497 1498 1499 1500 1502 1503 1504 1505 1506 1507 1508 1508 1509 1509 1509 1509 1509 1509 1508 1508 1508 1509 1509 1509 1509 1509 1509 1509 1509 1508 1508 1508 1508 1508 1508 1508 1507 1507 1507 1507
1494 1497 1495 1496 1494 1495 1499 1499 1495 1495 1497 1498 1499 1500 1501 1502 1504 1505 1506 1506 1507 1507 1508 1507 1507 1507 1507 1507 1507 1507 1507 1507 1507 1507 1506 1506 1506 1506 1505 1505 1505 1505 1505 1504 1504 1504 1503 1503 1503
1497 1493 1492 1494 1494 1495 1497 1496 1494 1494 1495 1495 1497 1498 1500 1501 1503 1503 1504 1505 1505 1506 1506 1506 1506 1505 1505 1505 1505 1505 1505 1504 1504 1504 1504 1504 1503 1502 1502 1502 1502 1501 1501 1501 1500 1500 1500 1499 1499
1493 1492 1493 1493 1493 1495 1496 1494 1492 1492 1492 1493 1494 1496 1497 1499 1501 1502 1502 1503 1503 1504 1504 1504 1504 1503 1503 1502 1503 1502 1502 1502 1502 1502 1501 1501 1500 1500 1499 1499 1498 1498 1498 1497 1497 1496 1496 1495 1495
1494 1495 1494 1494 1493 1495 1495 1493 1489 1488 1489 1490 1492 1493 1495 1497 1499 1500 1500 1501 1501 1502 1502 1502 1502 1501 1501 1501 1501 1501 1500 1500 1500 1500 1499 1499 1498 1497 1496 1495 1495 1494 1494 1494 1493 1493 1492 1491 1492
1496 1498 1498 1499 1496 1494 1495 1494 1487 1484 1486 1488 1490 1491 1493 1495 1496 1497 1498 1499 1499 1500 1500 1500 1500 1500 1500 1500 1499 1499 1498 1498 1498 1497 1496 1496 1495 1494 1493 1492 1491 1491 1490 1490 1490 1489 1489 1488 1488
1500 1498 1498 1498 1501 1501 1497 1504 1489 1483 1485 1486 1488 1490 1491 1493 1494 1496 1496 1497 1497 1498 1499 1499 1499 1499 1498 1498 1497 1497 1496 1496 1495 1495 1494 1493 1492 1491 1490 1489 1488 1487 1487 1486 1486 1486 1485 1485 1484
1501 1499 1499 1499 1500 1503 1497 1501 1491 1482 1484 1484 1486 1488 1490 1491 1493 1494 1494 1495 1496 1497 1497 1497 1497 1497 1496 1496 1496 1495 1494 1494 1493 1492 1491 1490 1489 1488 1487 1486 1485 1484 1483 1482 1482 1482 1481 1481 1480
1501 1500 1499 1499 1503 1509 1497 1499 1493 1483 1481 1481 1483 1486 1488 1490 1491 1492 1493 1493 1494 1495 1495 1495 1495 1495 1494 1494 1494 1493 1493 1492 1491 1490 1488 1487 1486 1485 1484 1483 1482 1481 1480 1479 1478 1478 1477 1477 1476
1502 1506 1509 1509 1509 1504 1490 1494 1491 1477 1476 1478 1481 1484 1486 1488 1489 1490 1491 1491 1492 1492 1492 1493 1492 1492 1492 1492 1491 1491 1491 1490 1488 1487 1486 1485 1483 1482 1481 1480 1479 1478 1477 1476 1475 1474 1473 1473 1472
1504 1505 1512 1513 1508 1499 1494 1495 1485 1476 1477 1479 1481 1484 1486 1487 1488 1488 1489 1489 1490 1490 1490 1490 1490 1490 1490 1489 1489 1489 1488 1487 1486 1485 1484 1482 1481 1480 1479 1477 1476 1475 1474 1473 1472 1471 1470 1469 1468
1505 1506 1506 1510 1507 1506 1495 1483 1479 1477 1479 1481 1482 1484 1485 1486 1487 1487 1488 1488 1488 1488 1488 1488 1488 1487 1487 1487 1486 1486 1485 1484 1483 1482 1481 1480 1479 1477 1476 1475 1474 1472 1471 1470 1469 1468 1467 1466 1465
1507 1506 1509 1511 1510 1506 1491 1483 1485 1482 1481 1481 1482 1483 1484 1485 1485 1486 1486 1486 1486 1486 1486 1486 1485 1485 1484 1484 1483 1483 1482 1481 1480 1479 1478 1477 1476 1474 1473 1472 1470 1469 1468 1467 1466 1465 1463 1462 1461
1508 1508 1507 1508 1507 1509 1503 1493 1477 1478 1478 1480 1481 1482 1483 1484 1484 1484 1484 1484 1484 1483 1483 1482 1482 1482 1481 1481 1480 1480 1479 1478 1477 1476 1475 1474 1473 1471 1470 1469 1467 1466 1465 1464 1462 1461 1459 1458 1456
1504 1503 1505 1512 1509 1506 1509 1498 1477 1477 1478 1479 1480 1481 1482 1482 1482 1482 1482 1481 1481 1480 1480 1479 1479 1478 1478 1478 1477 1477 1476 1475 1474 1473 1472 1471 1469 1468 1467 1466 1464 1463 1462 1460 1459 1457 1455 1454 1452